Erie, PA

7:18 PM EST on February 06, 2016 (GMT -0500)
Erie International

Weather History for KERI - August, 2012

Change the Weather History Date:

Monday, August 27, 2012

  Actual Average Record
Temperature  
Mean Temperature 72 °F 69 °F  
Max Temperature 76 °F 78 °F 92 °F (1948)
Min Temperature 68 °F 61 °F 47 °F (1954)
Degree Days  
Heating Degree Days 0 1  
Month to date heating degree days 2 2  
Since 1 June heating degree days 45 70  
Since 1 July heating degree days 2 9  
Cooling Degree Days 7 5  
Month to date cooling degree days 184 165  
Year to date cooling degree days 786 540  
Since 1 June cooling degree days 691 501  
Growing Degree Days 22 (Base 50)    
Moisture  
Dew Point 67 °F    
Average Humidity 81    
Maximum Humidity 97    
Minimum Humidity 64    
Precipitation  
Precipitation 0.84 in 0.11 in 1.36 in (1987)
Month to date precipitation 2.41 3.03  
Year to date precipitation 20.71 25.39  
Snow  
Snow 0.00 in 0.00 in - ()
Month to date snowfall 0.0 0.0  
Since 1 June snowfall 0.0 0.0  
Since 1 July snowfall 0.0 0.0  
Snow Depth 0.00 in    
Sea Level Pressure  
Sea Level Pressure 30.00 in    
Wind  
Wind Speed 7 mph (South)    
Max Wind Speed 18 mph    
Max Gust Speed 23 mph    
Visibility 4 miles    
Events Rain    
T = Trace of Precipitation, MM = Missing Value Source: NWS Daily Summary

Daily Weather History Graph

Daily Weather History Graph

Search for Another Location

Airport or City:

Trip Planner

Search our weather history database for the weather conditions in past years. The results will help you decide how hot, cold, wet, or windy it might be!

Date:

Astronomy

Aug. 27, 2012 Rise Set
Actual Time 6:41 AM EDT 8:01 PM EDT
Civil Twilight 6:12 AM EDT 8:30 PM EDT
Nautical Twilight 5:37 AM EDT 9:05 PM EDT
Astronomical Twilight 5:00 AM EDT 9:42 PM EDT
Moon 5:22 PM EDT (8/27) 2:20 AM EDT (8/27)
Length of Visible Light 14h 18m
Length of Day
13h 20m
Waxing Gibbous, 82% of the Moon is Illuminated
Aug 27
Waxing Gibbous
Aug 31
Full
Sep 8
Last Quarter
Sep 15
New
Sep 22
First Quarter

Hourly Weather History & Observations

Time (EDT) Temp. Dew Point Humidity Pressure Visibility Wind Dir Wind Speed Gust Speed Precip Events Conditions
12:51 AM 72.0 °F 63.0 °F 73% 30.06 in 8.0 mi SSE 15.0 mph 24.2 mph N/A   Clear
1:51 AM 71.1 °F 63.0 °F 75% 30.05 in 8.0 mi SSE 13.8 mph - N/A   Clear
2:51 AM 70.0 °F 63.0 °F 78% 30.03 in 8.0 mi SSE 11.5 mph 20.7 mph N/A   Clear
3:51 AM 69.1 °F 63.0 °F 81% 30.02 in 9.0 mi South 12.7 mph - N/A   Clear
4:51 AM 68.0 °F 63.0 °F 84% 30.02 in 9.0 mi South 13.8 mph - N/A   Clear
5:51 AM 68.0 °F 62.1 °F 81% 30.02 in 8.0 mi South 16.1 mph 20.7 mph N/A   Clear
6:51 AM 69.1 °F 62.1 °F 78% 30.02 in 7.0 mi South 12.7 mph 19.6 mph N/A   Clear
7:51 AM 70.0 °F 62.1 °F 76% 30.02 in 7.0 mi South 12.7 mph - N/A   Overcast
8:51 AM 71.6 °F 62.6 °F 73% 30.06 in 7.0 mi South 6.9 mph - N/A   Partly Cloudy
9:51 AM 75.0 °F 63.0 °F 66% 30.04 in 6.0 mi SW 8.1 mph - N/A   Haze
10:51 AM 73.9 °F 64.0 °F 71% 30.06 in 6.0 mi West 8.1 mph - 0.00 in Rain Light Rain
11:08 AM 71.6 °F 66.2 °F 83% 30.08 in 2.5 mi WSW 6.9 mph - 0.01 in Rain Light Rain
11:27 AM 69.8 °F 66.2 °F 88% 30.08 in 0.8 mi SSW 8.1 mph - 0.09 in Rain Heavy Rain
11:41 AM 69.8 °F 66.2 °F 88% 30.07 in 1.8 mi South 6.9 mph - 0.20 in Rain Rain
11:49 AM 69.8 °F 66.2 °F 88% 30.07 in 2.5 mi South 8.1 mph - 0.21 in Rain Light Rain
11:51 AM 69.1 °F 66.9 °F 93% 30.06 in 2.5 mi South 8.1 mph - 0.22 in Rain Rain
12:05 PM 69.8 °F 66.2 °F 88% 30.06 in 1.8 mi South 8.1 mph - 0.03 in Rain Rain
12:13 PM 69.8 °F 66.2 °F 88% 30.06 in 2.5 mi SSE 10.4 mph - 0.06 in Rain Light Rain
12:35 PM 69.8 °F 66.2 °F 88% 30.05 in 3.0 mi South 9.2 mph - 0.07 in Rain Light Rain
12:51 PM 70.0 °F 68.0 °F 93% 30.03 in 4.0 mi SSE 8.1 mph - 0.08 in Rain Light Rain
1:51 PM 71.1 °F 69.1 °F 93% 30.02 in 2.5 mi South 6.9 mph - 0.05 in Rain Rain
2:14 PM 71.6 °F 68.0 °F 88% 30.02 in 4.0 mi SSE 9.2 mph - 0.03 in Rain Light Rain
2:51 PM 71.1 °F 68.0 °F 90% 30.00 in 3.0 mi South 5.8 mph - 0.04 in Rain Light Rain
3:15 PM 71.6 °F 69.8 °F 94% 30.01 in 2.0 mi South 6.9 mph - 0.02 in Rain Rain
3:22 PM 71.6 °F 69.8 °F 94% 30.00 in 1.0 mi SSE 6.9 mph - 0.11 in Rain Heavy Rain
3:30 PM 71.6 °F 69.8 °F 94% 30.00 in 2.0 mi SSE 4.6 mph - 0.13 in Rain Rain
3:51 PM 71.1 °F 68.0 °F 90% 29.98 in 2.5 mi SSE 4.6 mph - 0.17 in Rain Rain
4:05 PM 71.6 °F 69.8 °F 94% 29.98 in 2.5 mi SSE 3.5 mph - 0.04 in Rain Rain
4:16 PM 71.6 °F 68.0 °F 88% 29.98 in 3.0 mi SSE 3.5 mph - 0.06 in Rain Light Rain
4:23 PM 71.6 °F 69.8 °F 94% 29.98 in 2.5 mi South 4.6 mph - 0.07 in Rain Rain
4:51 PM 71.1 °F 68.0 °F 90% 29.95 in 1.8 mi South 10.4 mph - 0.13 in Rain Rain
5:51 PM 72.0 °F 69.1 °F 91% 29.94 in 1.8 mi South 5.8 mph - 0.11 in Rain Light Rain
5:58 PM 71.6 °F 69.8 °F 94% 29.95 in 4.0 mi South 6.9 mph - 0.00 in   Overcast
6:46 PM 71.6 °F 69.8 °F 94% 29.95 in 1.8 mi SSE 5.8 mph - 0.01 in Rain Light Rain
6:51 PM 71.1 °F 69.1 °F 93% 29.94 in 1.5 mi SSE 5.8 mph - 0.01 in Rain Light Rain
7:10 PM 71.6 °F 69.8 °F 94% 29.94 in 3.0 mi Calm Calm - 0.01 in Rain Light Rain
7:20 PM 71.6 °F 69.8 °F 94% 29.94 in 1.8 mi SSE 3.5 mph - 0.02 in Rain Light Rain
7:45 PM 71.6 °F 69.8 °F 94% 29.94 in 2.0 mi Calm Calm - 0.03 in Rain Light Rain
7:46 PM 71.1 °F 69.1 °F 93% 29.93 in 2.0 mi Calm Calm - 0.03 in Rain Light Rain
8:02 PM 71.6 °F 68.0 °F 88% 29.94 in 3.0 mi SSE 3.5 mph - 0.00 in   Overcast
8:36 PM 69.8 °F 68.0 °F 94% 29.94 in 6.0 mi SSW 3.5 mph - 0.00 in   Overcast
8:51 PM 70.0 °F 68.0 °F 93% 29.94 in 6.0 mi Calm Calm - 0.00 in   Overcast
9:51 PM 70.0 °F 68.0 °F 93% 29.94 in 5.0 mi SSW 3.5 mph - N/A   Mostly Cloudy
10:51 PM 69.1 °F 66.9 °F 93% 29.95 in 3.0 mi Calm Calm - N/A   Mostly Cloudy
10:58 PM 69.8 °F 66.2 °F 88% 29.96 in 2.5 mi Calm Calm - N/A   Mostly Cloudy
11:32 PM 68.0 °F 66.2 °F 94% 29.96 in 3.0 mi Calm Calm - N/A   Overcast
11:51 PM 69.1 °F 68.0 °F 96% 29.96 in 4.0 mi SSW 3.5 mph - N/A   Overcast